TimeEST,TemperatureF,Dew PointF,Humidity,Sea Level PressureIn,VisibilityMPH,Wind Direction,Wind SpeedMPH,Gust SpeedMPH,PrecipitationIn,Events,Conditions,WindDirDegrees,DateUTC
12:56 AM,36.0,26.1,67,30.57,10.0,NE,5.8,-,N/A,,Clear,50,2013-11-30 05:56:00
1:56 AM,36.0,26.1,67,30.58,10.0,NE,5.8,-,N/A,,Clear,50,2013-11-30 06:56:00
2:56 AM,35.1,25.0,67,30.58,10.0,NE,8.1,-,N/A,,Clear,50,2013-11-30 07:56:00
3:56 AM,33.1,25.0,72,30.58,10.0,NE,5.8,-,N/A,,Clear,40,2013-11-30 08:56:00
4:56 AM,32.0,25.0,75,30.59,10.0,NNE,8.1,-,N/A,,Clear,30,2013-11-30 09:56:00
5:56 AM,30.9,24.1,76,30.60,10.0,NNE,6.9,-,N/A,,Clear,30,2013-11-30 10:56:00
6:56 AM,30.9,24.1,76,30.62,10.0,NE,6.9,-,N/A,,Clear,40,2013-11-30 11:56:00
7:56 AM,32.0,24.1,73,30.63,10.0,NNE,5.8,-,N/A,,Clear,30,2013-11-30 12:56:00
8:56 AM,36.0,24.1,62,30.61,10.0,NE,10.4,17.3,N/A,,Clear,40,2013-11-30 13:56:00
9:56 AM,39.9,24.1,53,30.62,10.0,NNE,10.4,-,N/A,,Clear,30,2013-11-30 14:56:00
10:56 AM,44.1,26.1,49,30.61,10.0,NNE,9.2,-,N/A,,Clear,30,2013-11-30 15:56:00
11:56 AM,46.9,26.1,44,30.57,10.0,North,8.1,-,N/A,,Clear,10,2013-11-30 16:56:00
12:56 PM,48.0,25.0,41,30.53,10.0,Variable,5.8,-,N/A,,Partly Cloudy,0,2013-11-30 17:56:00
1:56 PM,48.0,23.0,37,30.49,10.0,NE,5.8,-,N/A,,Scattered Clouds,50,2013-11-30 18:56:00
2:56 PM,48.9,23.0,36,30.47,10.0,NNE,5.8,-,N/A,,Scattered Clouds,20,2013-11-30 19:56:00
3:56 PM,50.0,23.0,35,30.45,10.0,Variable,5.8,-,N/A,,Overcast,0,2013-11-30 20:56:00
4:56 PM,48.0,24.1,39,30.44,10.0,NE,5.8,-,N/A,,Mostly Cloudy,40,2013-11-30 21:56:00
5:56 PM,46.0,26.1,46,30.44,10.0,Calm,Calm,-,N/A,,Overcast,0,2013-11-30 22:56:00
6:56 PM,43.0,30.0,60,30.43,10.0,Calm,Calm,-,N/A,,Mostly Cloudy,0,2013-11-30 23:56:00
7:56 PM,44.1,30.0,58,30.42,10.0,NE,3.5,-,N/A,,Overcast,40,2013-12-01 00:56:00
8:56 PM,39.9,30.0,68,30.42,10.0,Calm,Calm,-,N/A,,Scattered Clouds,0,2013-12-01 01:56:00
9:56 PM,39.9,28.9,65,30.41,10.0,North,4.6,-,N/A,,Mostly Cloudy,10,2013-12-01 02:56:00
10:56 PM,41.0,28.0,60,30.40,10.0,NNE,5.8,-,N/A,,Overcast,20,2013-12-01 03:56:00
11:56 PM,39.9,27.0,60,30.38,10.0,North,3.5,-,N/A,,Overcast,10,2013-12-01 04:56:00